Find Starlink 34975

NORAD ID: 65224 Int'l Des: 2025-176 Owner: SPXS Country: US Constellation: starlink operational
LEOCIRCULAR

Current View

Loading 3D Globe...

About Starlink 34975

Description loading...

Upcoming Passes

Passes for default location (London). Set your location on the main map for personalized predictions.

Altitude History

Loading altitude history...

Two-Line Element Set

1 65224U 25176AC 26150.94139559 .00040483 00000-0 12022-2 0 9997
2 65224 53.1591 129.9597 0001295 94.4216 265.6934 15.34416529 45723
Epoch: May 30, 2026 • Age: 9 hours

Current Status

Altitude 473.3 km
Velocity 7.63 km/s
Sub-Earth Point -32.43°S, 94.22°E
Launch Date Aug 14, 2025
Age 0.7 years
Type internet

Technical Details

Classification Payload
Mass 575.00 kg
Dry Mass 530.00 kg
Total Mass 575.00 kg
Length 0.30 m
Diameter 4.10 m
Span 29.00 m
Shape Box + pan
Manufacturer SPXS
Bus Type Starlink V2MO
Phase Status In Orbit
Owner/State SPXS/US

Most Searched